This demonstration page uses our WeatherBlox Daily Observations layout. Learn more.

39.01783, -85.05884

Hourly Observations for August 16, 2019

Temp ( °F °C ) Dew Point ( °F °C ) Humidity (%) Winds ( mph kmh ) Pressure ( in mb ) Visibility ( mi km ) Precip ( " mm )
12:52 am 00:52 Clear 70 21.1 61 16.1 73 73 Calm 29.94 1014 10 16.09344 0 0
1:52 am 01:52 Partly Cloudy 67 19.4 60 15.6 79 79 W 7 11 29.97 1015 10 16.09344 0 0
2:52 am 02:52 Partly Cloudy 66 18.9 60 15.6 81 81 Calm 29.94 1014 10 16.09344 0 0
3:52 am 03:52 Mostly Cloudy 65 18.3 60 15.6 84 84 NNW 3 6 29.97 1015 10 16.09344 0 0
4:52 am 04:52 Mostly Cloudy 67 19.4 62 16.7 84 84 Calm 29.94 1014 10 16.09344 0 0
5:52 am 05:52 Partly Cloudy 66 18.9 61 16.1 84 84 Calm 29.94 1014 10 16.09344 0 0
6:52 am 06:52 Partly Cloudy 62 16.7 60 15.6 93 93 Calm 29.97 1015 7 11.265408 0 0
7:52 am 07:52 Mostly Sunny 66 18.9 63 17.2 90 90 Calm 29.97 1015 7 11.265408 0 0
8:52 am 08:52 Mostly Sunny 72 22.2 64 17.8 76 76 Calm 29.97 1015 8 12.874752 0 0
9:52 am 09:52 Mostly Sunny 76 24.4 64 17.8 67 67 SSW 5 7 29.97 1015 10 16.09344 0 0
10:52 am 10:52 Partly Cloudy 80 26.7 63 17.2 56 56 S 7 11 29.97 1015 10 16.09344 0 0
11:52 am 11:52 Mostly Cloudy 82 27.8 63 17.2 53 53 SW 8 13 30 1016 10 16.09344 0 0
12:52 pm 12:52 Mostly Cloudy 83 28.3 62 16.7 49 49 SW 7 11 29.97 1015 10 16.09344 0 0
1:52 pm 13:52 Mostly Cloudy 83 28.3 60 15.6 46 46 WSW 5 7 29.97 1015 10 16.09344 0 0
2:52 pm 14:52 Mostly Cloudy 86 30 59 15 40 40 WSW 8 13 29.94 1014 10 16.09344 0 0
3:52 pm 15:52 Mostly Cloudy 86 30 61 16.1 43 43 VRB 5 7 29.94 1014 10 16.09344 0 0
4:52 pm 16:52 Mostly Cloudy 85 29.4 61 16.1 45 45 SW 6 9 29.94 1014 10 16.09344 0 0
5:52 pm 17:52 Mostly Cloudy 87 30.6 59 15 39 39 S 8 13 29.91 1013 10 16.09344 0 0
6:52 pm 18:52 Mostly Cloudy 85 29.4 60 15.6 43 43 SSW 7 11 29.91 1013 10 16.09344 0 0
7:52 pm 19:52 Mostly Cloudy 82 27.8 61 16.1 49 49 SW 6 9 29.91 1013 10 16.09344 0 0
8:52 pm 20:52 Mostly Cloudy 79 26.1 62 16.7 56 56 S 6 9 29.91 1013 10 16.09344 0 0
9:52 pm 21:52 Partly Cloudy 76 24.4 62 16.7 62 62 SSW 5 7 29.91 1013 10 16.09344 0 0
10:52 pm 22:52 Partly Cloudy 75 23.9 63 17.2 66 66 SSW 5 7 29.91 1013 10 16.09344 0 0
11:52 pm 23:52 Partly Cloudy 75 23.9 63 17.2 66 66 SW 5 7 29.94 1014 10 16.09344 0 0

Powered by AerisWeather